Tracking 18957 objects as of 23-Jan-2018
HD Live streaming from Space Station
objects crossing your sky now

METEOR 1-21

Track METEOR 1-21 now!
10-day predictions
METEOR 1-21 is classified as:


NORAD ID: 7714
Int'l Code: 1975-023A
Perigee: 851.5 km
Apogee: 895.5 km
Inclination: 81.2 °
Period: 102.3 minutes
Semi major axis: 7244 km
RCS: 4.3419 m2 (large)
Launch date: April 1, 1975
Source: Commonwealth of Independent States (former USSR) (CIS)
Launch site: PLESETSK MISSILE AND SPACE COMPLEX (PKMTR)
aabbcc
Your satellite tracking list
Your tracking list is empty




NASA's NSSDC Master Catalog

Two Line Element Set (TLE):
1  7714U 75023A   18022.95200109 -.00000005 +00000-0 -10151-4 0  9994
2  7714 081.2106 337.6693 0030360 358.3490 001.7574 14.07964657515868
Source of the keplerian elements: AFSPC